Location: Unspecified
(48.8656°N, 0.0000°E)
Time: 21:21:14
(UTC+00:00)

Vanguard 1 - Pass Details

Date: 23 June 2019
Orbit: 653 x 3830 km, 34.3° (Epoch: 15 July)

Event Time Altitude Azimuth Distance (km) Brightness Sun altitude
Rises 06:10:30 0° 263° (W) 6,328 13.6 18.8°
Reaches altitude 10° 06:16:00 10° 255° (WSW) 4,735 13.0 19.6°
Maximum altitude 06:25:30 28° 203° (SSW) 2,473 12.0 21.2°
Drops below altitude 10° 06:31:31 10° 146° (SE) 2,913 12.9 22.1°
Sets 06:34:02 0° 133° (SE) 3,592 13.5 22.5°
